WD8INF-9 Weather Reports


time (UTC)temp
F
wind
direction
speed
knots
gust
knots
rain 1hr
in
rain 24hr
in
rain mn
in
humidity
%
barometer
mb
20260903011154 83 0 0.0 0.0 0.00 0.00 0.00 1014.5
20260903010654 83 0 0.0 0.0 0.00 0.00 0.00 1014.6
20260903010154 84 0 0.0 0.0 0.00 0.00 0.00 1014.2
20260903005655 84 0 0.0 0.0 0.00 0.00 0.00 1014.5
20260903005153 84 0 0.0 0.0 0.00 0.00 0.00 1014.5
20260903004653 84 0 0.0 0.0 0.00 0.00 0.00 1014.4
20260903004153 85 0 0.0 0.0 0.00 0.00 0.00 1014.1
20260903003653 86 0 0.0 0.0 0.00 0.00 0.00 1014.2
20260903003153 87 210 0.0 1.7 0.00 0.00 0.00 1014.1
20260903002652 87 0 0.0 0.0 0.00 0.00 0.00 1014.1
20260903002152 87 0 0.0 0.0 0.00 0.00 0.00 1014.1
20260903001653 87 179 0.0 0.9 0.00 0.00 0.00 1014.2
20260903001152 87 262 0.0 0.9 0.00 0.00 0.00 1014.0
20260903000651 87 0 0.0 0.0 0.00 0.00 0.00 1014.1
20260903000155 88 0 0.0 0.0 0.00 0.00 0.00 1014.1
20260902235650 89 257 0.0 0.9 0.00 0.00 0.00 1013.9
20260902235150 89 249 0.9 2.6 0.00 0.00 0.00 1014.0
20260902234651 90 259 0.0 1.7 0.00 0.00 0.00 1013.8
20260902234149 90 304 0.0 0.9 0.00 0.00 0.00 1014.0
20260902233650 91 222 0.9 1.7 0.00 0.00 0.00 1013.9
20260902233149 92 242 0.9 1.7 0.00 0.00 0.00 1014.0
20260902232649 93 266 0.0 0.9 0.00 0.00 0.00 1014.0
20260902232149 94 259 0.0 1.7 0.00 0.00 0.00 1014.1
20260902231148 94 260 0.9 5.2 0.00 0.00 0.00 1014.0
20260902230649 97 266 0.9 5.2 0.00 0.00 0.00 1013.9
20260902230148 101 277 0.9 2.6 0.00 0.00 0.00 1013.9
20260902225647 100 245 0.9 2.6 0.00 0.00 0.00 1013.8
20260902225147 97 252 0.9 1.7 0.00 0.00 0.00 1014.1
20260902224647 96 280 0.9 3.5 0.00 0.00 0.00 1014.0
20260902224147 96 252 0.9 2.6 0.00 0.00 0.00 1014.1
20260902223646 100 243 0.9 3.5 0.00 0.00 0.00 1014.0
20260902223146 107 203 0.9 1.7 0.00 0.00 0.00 1014.2
20260902222146 101 257 0.9 2.6 0.00 0.00 0.00 1014.0
20260902220145 102 208 0.9 1.7 0.00 0.00 0.00 1014.2
20260902215645 97 249 0.0 2.6 0.00 0.00 0.00 1014.2
20260902215145 96 207 0.9 2.6 0.00 0.00 0.00 1014.2
20260902214644 96 250 0.9 2.6 0.00 0.00 0.00 1014.2
20260902214145 96 276 0.9 2.6 0.00 0.00 0.00 1014.2
20260902213643 96 256 0.9 1.7 0.00 0.00 0.00 1014.2
20260902213143 96 233 0.9 3.5 0.00 0.00 0.00 1014.4
20260902212143 96 249 0.9 2.6 0.00 0.00 0.00 1014.4
20260902211643 97 259 0.9 2.6 0.00 0.00 0.00 1014.4
20260902211142 96 233 0.9 3.5 0.00 0.00 0.00 1014.5
20260902210642 97 238 0.9 4.3 0.00 0.00 0.00 1014.5
20260902205639 97 240 1.7 5.2 0.00 0.00 0.00 1014.4
20260902205139 98 184 0.9 3.5 0.00 0.00 0.00 1014.7
20260902204639 97 242 0.9 4.3 0.00 0.00 0.00 1014.7
20260902204139 98 229 0.9 3.5 0.00 0.00 0.00 1014.6
20260902202638 97 235 0.9 3.5 0.00 0.00 0.00 1014.6
20260902202138 97 278 0.9 3.5 0.00 0.00 0.00 1014.7
20260902201637 97 162 0.9 3.5 0.00 0.00 0.00 1014.7
20260902201137 97 240 0.9 3.5 0.00 0.00 0.00 1014.8
20260902200636 97 242 0.9 3.5 0.00 0.00 0.00 1014.9
20260902195634 96 242 0.0 3.5 0.00 0.00 0.00 1014.9
20260902195134 97 309 0.9 1.7 0.00 0.00 0.00 1014.8
20260902194634 98 291 0.9 2.6 0.00 0.00 0.00 1015.1
20260902194133 98 236 0.9 3.5 0.00 0.00 0.00 1015.1
20260902193633 97 242 0.9 6.1 0.00 0.00 0.00 1015.3
20260902193133 96 252 0.9 3.5 0.00 0.00 0.00 1015.3
20260902192633 97 222 1.7 4.3 0.00 0.00 0.00 1015.4
20260902192132 96 295 0.9 1.7 0.00 0.00 0.00 1015.3
20260902191632 97 243 0.9 4.3 0.00 0.00 0.00 1015.5
20260902191132 97 242 0.9 4.3 0.00 0.00 0.00 1015.5
20260902190633 96 235 0.9 4.3 0.00 0.00 0.00 1015.5
20260902190132 96 250 0.9 3.5 0.00 0.00 0.00 1015.6
20260902185632 97 104 0.9 4.3 0.00 0.00 0.00 1015.7
20260902185131 96 245 1.7 4.3 0.00 0.00 0.00 1015.6
20260902184631 96 253 0.9 3.5 0.00 0.00 0.00 1015.6
20260902184131 97 248 1.7 3.5 0.00 0.00 0.00 1015.8
20260902183630 96 248 0.9 1.7 0.00 0.00 0.00 1015.7
20260902183130 95 215 0.0 0.9 0.00 0.00 0.00 1015.9
20260902182630 93 215 0.0 0.9 0.00 0.00 0.00 1015.8
20260902182131 93 262 0.0 1.7 0.00 0.00 0.00 1015.8
20260902181630 94 245 0.9 3.5 0.00 0.00 0.00 1015.9
20260902181129 95 238 0.9 3.5 0.00 0.00 0.00 1015.8
20260902180129 96 222 0.9 3.5 0.00 0.00 0.00 1016.0
20260902175629 95 231 0.9 3.5 0.00 0.00 0.00 1016.1
20260902175128 96 231 0.0 2.6 0.00 0.00 0.00 1016.1
20260902174628 97 236 0.9 2.6 0.00 0.00 0.00 1016.2
20260902174128 96 242 0.9 2.6 0.00 0.00 0.00 1016.4
20260902173628 96 243 0.9 2.6 0.00 0.00 0.00 1016.4
20260902173128 96 281 0.9 1.7 0.00 0.00 0.00 1016.3
20260902172628 95 250 1.7 4.3 0.00 0.00 0.00 1016.7
20260902172127 95 249 0.9 3.5 0.00 0.00 0.00 1016.5
20260902171627 94 267 1.7 5.2 0.00 0.00 0.00 1016.6
20260902171128 95 255 1.7 5.2 0.00 0.00 0.00 1016.5
20260902170626 96 246 0.9 3.5 0.00 0.00 0.00 1016.6
20260902170126 95 262 1.7 3.5 0.00 0.00 0.00 1016.5
20260902165626 95 249 0.9 3.5 0.00 0.00 0.00 1016.6
20260902165126 95 240 0.9 4.3 0.00 0.00 0.00 1016.6
20260902164625 95 255 0.9 2.6 0.00 0.00 0.00 1016.6
20260902164125 95 260 0.0 0.9 0.00 0.00 0.00 1016.6
20260902163625 95 243 0.9 2.6 0.00 0.00 0.00 1016.6
20260902163125 95 252 0.9 3.5 0.00 0.00 0.00 1016.8
20260902162624 94 243 0.9 2.6 0.00 0.00 0.00 1016.7
20260902160623 93 242 0.9 3.5 0.00 0.00 0.00 1016.8
20260902160123 93 214 0.9 3.5 0.00 0.00 0.00 1017.1
20260902155623 94 248 1.7 6.1 0.00 0.00 0.00 1016.8
20260902155123 94 221 0.9 2.6 0.00 0.00 0.00 1017.0
20260902154622 93 281 0.9 1.7 0.00 0.00 0.00 1017.1
20260902154122 93 219 0.9 1.7 0.00 0.00 0.00 1017.1
20260902153622 92 252 1.7 4.3 0.00 0.00 0.00 1017.0
20260902153122 93 236 1.7 3.5 0.00 0.00 0.00 1017.0
20260902152621 95 264 0.9 1.7 0.00 0.00 0.00 1017.1
20260902152121 100 259 1.7 4.3 0.00 0.00 0.00 1017.1
20260902151621 101 245 0.0 1.7 0.00 0.00 0.00 1017.1
20260902151121 100 294 0.0 0.9 0.00 0.00 0.00 1017.2
20260902150621 98 239 0.9 3.5 0.00 0.00 0.00 1017.5
20260902150120 97 262 1.7 5.2 0.00 0.00 0.00 1017.2
20260902145620 100 235 0.0 2.6 0.00 0.00 0.00 1017.1
20260902145120 98 233 0.9 5.2 0.00 0.00 0.00 1017.2
20260902144620 98 231 0.9 2.6 0.00 0.00 0.00 1017.5
20260902144119 98 249 0.9 1.7 0.00 0.00 0.00 1017.2
20260902143619 95 222 1.7 5.2 0.00 0.00 0.00 1017.3
20260902143119 95 246 0.9 1.7 0.00 0.00 0.00 1017.2
20260902142620 94 256 0.9 1.7 0.00 0.00 0.00 1017.2
20260902142119 94 242 0.9 3.5 0.00 0.00 0.00 1017.3
20260902141618 95 249 0.9 4.3 0.00 0.00 0.00 1017.3
20260902141117 97 238 0.9 3.5 0.00 0.00 0.00 1017.1
20260902140617 98 252 0.9 2.6 0.00 0.00 0.00 1017.1
20260902140117 99 259 0.9 2.6 0.00 0.00 0.00 1017.1
20260902135617 97 245 0.9 2.6 0.00 0.00 0.00 1017.3
20260902135118 96 208 0.0 0.9 0.00 0.00 0.00 1017.3
20260902134116 95 238 0.9 2.6 0.00 0.00 0.00 1017.3
20260902133616 96 236 0.0 1.7 0.00 0.00 0.00 1017.2
20260902133116 94 248 0.0 0.9 0.00 0.00 0.00 1017.1
20260902132615 95 283 0.0 0.9 0.00 0.00 0.00 1017.0
20260902132116 94 194 0.0 0.9 0.00 0.00 0.00 1017.2
20260902131615 93 233 0.0 0.9 0.00 0.00 0.00 1017.3
20260902131114 90 263 0.0 1.7 0.00 0.00 0.00 1017.1
20260902130616 90 188 0.0 0.9 0.00 0.00 0.00 1017.3
20260902125613 90 219 0.9 1.7 0.00 0.00 0.00 1017.2
20260902125113 88 0 0.0 0.0 0.00 0.00 0.00 1017.3
20260902124613 86 0 0.0 0.0 0.00 0.00 0.00 1017.3
20260902124113 85 0 0.0 0.0 0.00 0.00 0.00 1017.2
20260902123612 83 0 0.0 0.0 0.00 0.00 0.00 1017.2
20260902123112 79 0 0.0 0.0 0.00 0.00 0.00 1017.0
20260902122611 76 0 0.0 0.0 0.00 0.00 0.00 1017.2
20260902122111 76 0 0.0 0.0 0.00 0.00 0.00 1017.0
20260902121645 75 0 0.0 0.0 0.00 0.00 0.00 1017.0
20260902121611 75 0 0.0 0.0 0.00 0.00 0.00 1017.0
20260902120109 74 0 0.0 0.0 0.00 0.00 0.00 1017.1
20260902115609 73 0 0.0 0.0 0.00 0.00 0.00 1016.9
20260902115109 73 0 0.0 0.0 0.00 0.00 0.00 1017.0
20260902114609 73 0 0.0 0.0 0.00 0.00 0.00 1016.8
20260902114109 72 0 0.0 0.0 0.00 0.00 0.00 1016.7
20260902113608 72 0 0.0 0.0 0.00 0.00 0.00 1016.7
20260902113109 72 0 0.0 0.0 0.00 0.00 0.00 1016.5
20260902112609 72 0 0.0 0.0 0.00 0.00 0.00 1016.4
20260902111607 72 0 0.0 0.0 0.00 0.00 0.00 1016.4
20260902111107 72 0 0.0 0.0 0.00 0.00 0.00 1016.6
20260902110606 72 0 0.0 0.0 0.00 0.00 0.00 1016.5
20260902110105 72 0 0.0 0.0 0.00 0.00 0.00 1016.6
20260902105605 72 0 0.0 0.0 0.00 0.00 0.00 1016.6
20260902105105 72 0 0.0 0.0 0.00 0.00 0.00 1016.7
20260902104604 72 0 0.0 0.0 0.00 0.00 0.00 1016.5
20260902103641 72 0 0.0 0.0 0.00 0.00 0.00 1016.5
20260902103604 72 0 0.0 0.0 0.00 0.00 0.00 1016.5
20260902103103 72 0 0.0 0.0 0.00 0.00 0.00 1016.5
20260902102604 72 0 0.0 0.0 0.00 0.00 0.00 1016.7
20260902102140 72 0 0.0 0.0 0.00 0.00 0.00 1016.4
20260902102103 72 0 0.0 0.0 0.00 0.00 0.00 1016.4
20260902101603 72 0 0.0 0.0 0.00 0.00 0.00 1016.4
20260902101103 72 0 0.0 0.0 0.00 0.00 0.00 1016.4
20260902095601 73 0 0.0 0.0 0.00 0.00 0.00 1016.4
20260902095100 73 0 0.0 0.0 0.00 0.00 0.00 1016.3
20260902094600 73 0 0.0 0.0 0.00 0.00 0.00 1016.3
20260902094100 73 0 0.0 0.0 0.00 0.00 0.00 1016.2
20260902093600 73 0 0.0 0.0 0.00 0.00 0.00 1016.4
20260902092559 73 0 0.0 0.0 0.00 0.00 0.00 1016.3
20260902092059 73 0 0.0 0.0 0.00 0.00 0.00 1016.3
20260902091558 73 0 0.0 0.0 0.00 0.00 0.00 1016.3
20260902091058 73 0 0.0 0.0 0.00 0.00 0.00 1016.2
20260902090558 73 0 0.0 0.0 0.00 0.00 0.00 1016.0
20260902090057 73 0 0.0 0.0 0.00 0.00 0.00 1016.1
20260902085558 73 0 0.0 0.0 0.00 0.00 0.00 1016.1
20260902085054 73 0 0.0 0.0 0.00 0.00 0.00 1016.0
20260902084053 73 0 0.0 0.0 0.00 0.00 0.00 1016.0
20260902083552 73 0 0.0 0.0 0.00 0.00 0.00 1015.8
20260902083052 73 0 0.0 0.0 0.00 0.00 0.00 1015.8
20260902082552 73 0 0.0 0.0 0.00 0.00 0.00 1015.8
20260902082052 73 0 0.0 0.0 0.00 0.00 0.00 1015.8
20260902081053 74 0 0.0 0.0 0.00 0.00 0.00 1015.7
20260902080551 74 0 0.0 0.0 0.00 0.00 0.00 1015.7
20260902080051 74 0 0.0 0.0 0.00 0.00 0.00 1015.6
20260902075551 74 0 0.0 0.0 0.00 0.00 0.00 1015.7
20260902075050 74 0 0.0 0.0 0.00 0.00 0.00 1015.6
20260902073549 74 0 0.0 0.0 0.00 0.00 0.00 1015.7
20260902072048 74 0 0.0 0.0 0.00 0.00 0.00 1015.6
20260902071043 74 0 0.0 0.0 0.00 0.00 0.00 1015.6
20260902070543 74 0 0.0 0.0 0.00 0.00 0.00 1015.6
20260902070042 74 0 0.0 0.0 0.00 0.00 0.00 1015.7
20260902065542 74 0 0.0 0.0 0.00 0.00 0.00 1015.7
20260902064542 74 0 0.0 0.0 0.00 0.00 0.00 1015.7
20260902064042 75 0 0.0 0.0 0.00 0.00 0.00 1015.6
20260902063541 75 0 0.0 0.0 0.00 0.00 0.00 1015.5
20260902062538 75 0 0.0 0.0 0.00 0.00 0.00 1015.6
20260902062038 75 0 0.0 0.0 0.00 0.00 0.00 1015.8
20260902061538 75 0 0.0 0.0 0.00 0.00 0.00 1015.7
20260902060037 75 0 0.0 0.0 0.00 0.00 0.00 1015.8
20260902055536 75 0 0.0 0.0 0.00 0.00 0.00 1015.8
20260902055036 75 0 0.0 0.0 0.00 0.00 0.00 1015.7
20260902054033 76 0 0.0 0.0 0.00 0.00 0.00 1015.8
20260902053533 76 0 0.0 0.0 0.00 0.00 0.00 1015.7
20260902052532 76 0 0.0 0.0 0.00 0.00 0.00 1015.8
20260902052031 76 0 0.0 0.0 0.00 0.00 0.00 1015.7
20260902045529 76 0 0.0 0.0 0.00 0.00 0.00 1015.8
20260902044029 77 0 0.0 0.0 0.00 0.00 0.00 1015.5
20260902043528 77 0 0.0 0.0 0.00 0.00 0.00 1015.6
20260902041528 77 0 0.0 0.0 0.00 0.00 0.00 1015.7
20260902041026 77 0 0.0 0.0 0.00 0.00 0.00 1015.8
20260902040526 77 0 0.0 0.0 0.00 0.00 0.00 1015.6
20260902040025 77 0 0.0 0.0 0.00 0.00 0.00 1015.9
20260902035525 78 0 0.0 0.0 0.00 0.00 0.00 1015.8
20260902035024 78 0 0.0 0.0 0.00 0.00 0.00 1015.7
20260902034525 78 0 0.0 0.0 0.00 0.00 0.00 1015.7
20260902034024 78 0 0.0 0.0 0.00 0.00 0.00 1015.9
20260902033022 78 0 0.0 0.0 0.00 0.00 0.00 1015.7
20260902025517 80 0 0.0 0.0 0.00 0.00 0.00 1015.6
20260902022516 79 0 0.0 0.0 0.00 0.00 0.00 1015.6
20260902021014 80 0 0.0 0.0 0.00 0.00 0.00 1015.5
20260902015512 81 0 0.0 0.0 0.00 0.00 0.00 1015.4
20260902014010 83 0 0.0 0.0 0.00 0.00 0.00 1015.2
20260902013510 82 0 0.0 0.0 0.00 0.00 0.00 1015.2
20260902013009 83 0 0.0 0.0 0.00 0.00 0.00 1015.0
20260902012508 83 0 0.0 0.0 0.00 0.00 0.00 1015.0
20260902012008 83 135 0.0 0.9 0.00 0.00 0.00 1015.2